Location: Stuttgart
(48.8069°N, 9.1544°E)
Time: 13:16:31
(UTC+02:00)

ISS - Pass Details

Date: 11 February 2018
Orbit: 403 x 408 km, 51.6° (Epoch: 22 September)

Event Time Altitude Azimuth Distance (km) Brightness Sun altitude
Rises 19:27:35 0° 282° (WNW) 2,322 1.6 -18.6°
Reaches altitude 10° 19:30:33 10° 252° (WSW) 1,460 0.1 -19.1°
Maximum altitude 19:32:05 13° 224° (SW) 1,300 -0.7 -19.3°
Drops below altitude 10° 19:33:38 10° 196° (SSW) 1,459 -0.9 -19.6°
Enters shadow 19:35:00 - 178° (S) 1,801 -0.6 -19.8°
